Regional Weather Roundup
Issued by NWS

Home | Current Version | Previous Version | Text Only | Print | Product List | Glossary On
Versions: 1 2 3 4 5 6 7 8 9 10 11 12 13 14 15 16 17 18 19 20 21 22 23 24 25 26 27 28 29 30 31 32 33 34 35 36 37 38 39 40 41 42 43 44 45 46 47 48 49 50
000
ASUS46 KSTO 022204
RWRCA

NORTHERN AND CENTRAL CA REGIONAL WEATHER ROUNDUP
NATIONAL WEATHER SERVICE SACRAMENTO CA
300 PM PDT WED SEP 02 2015

NOTE: FAIR INDICATES FEW OR NO CLOUDS BELOW 12,000 FEET WITH NO
SIGNIFICANT WEATHER AND/OR OBSTRUCTIONS TO VISIBILITY.

CAZ001-003-022300-
NORTHWEST AREA

CITY           SKY/WX    TMP DP  RH WIND       PRES   REMARKS
CRESCENT CITY  SUNNY     67  61  81 NW9       29.98S
UKIAH          SUNNY     83  52  34 VRB7G17   29.86F
$$

CAZ006-505>513-022300-
BAY AREA

CITY           SKY/WX    TMP DP  RH WIND       PRES   REMARKS
SANTA ROSA     MOSUNNY   79  54  41 SW6       29.86F
SAN RAFAEL     N/A       75  MM  MM MISG
NAPA           SUNNY     79  55  43 W13G25    29.89S
CONCORD        SUNNY     79  53  40 W12G21    29.89F
OAKLAND CITY   N/A       70  MM  MM MISG
OAKLAND        MOSUNNY   71  58  63 W20       29.94F
SAN FRAN CITY  N/A       66  MM  74 MISG
SAN FRAN ARPT  MOSUNNY   70  57  63 W20G29    29.95S
LIVERMORE      SUNNY     79  53  40 W18       29.91F
HAYWARD        MOSUNNY   70  58  65 W15G22    29.95S
REDWOOD CITY   N/A       MM  MM  MM MISG
MOFFETT ARPT   SUNNY     78  56  46 N17G23    29.93F
SAN JOSE ARPT  MOSUNNY   76  56  49 NW17G23   29.92F
$$
CAZ034-037-514>518-022300-
CENTRAL COAST

CITY           SKY/WX    TMP DP  RH WIND       PRES   REMARKS
WATSONVILLE    SUNNY     72  58  61 SW9       29.95F
SALINAS        PTSUNNY   72  57  59 W15       29.95F
MONTEREY       MOSUNNY   71  54  54 W9G17     29.97F
SAN LUIS OBISP SUNNY     77  55  46 NW14      29.93F
SANTA MARIA    MOSUNNY   75  57  53 NW20      29.94F
$$
CAZ015-016-022300-
NORTHERN SACRAMENTO VALLEY

CITY           SKY/WX    TMP DP  RH WIND       PRES   REMARKS
REDDING        SUNNY     88  50  27 S15       29.78F
RED BLUFF      SUNNY     85  52  32 S13       29.80F
OROVILLE       SUNNY     86  51  29 S14G20    29.83F
$$
CAZ016>018-022300-
SOUTHERN SACRAMENTO VALLEY

CITY           SKY/WX    TMP DP  RH WIND       PRES   REMARKS
AUBURN         SUNNY     82  46  28 S12       29.90F
BEALE AFB      SUNNY     86  45  23 S15       29.80F
LINCOLN        FAIR      88  39  18 S12G20    29.83S
MARYSVILLE     SUNNY     86  49  27 S16G23    29.82F
SAC INTL ARPT  MOSUNNY   84  49  29 S21G26    29.82F
MATHER AIRPORT SUNNY     84  50  30 SW13G18   29.85F
DOWNTOWN SAC   N/A       85  MM  MM MISG
SAC EXEC ARPT  SUNNY     82  51  34 SW14G22   29.85F
VACAVILLE      SUNNY     82  54  37 SW16G24   29.85F
TRAVIS AFB     SUNNY     80  54  41 SW22G31   29.84F
$$
CAZ019>021-022300-
SAN JOAQUIN VALLEY

CITY           SKY/WX    TMP DP  RH WIND       PRES   REMARKS
STOCKTON       SUNNY     86  51  29 W18G30    29.85F
MODESTO        SUNNY     87  48  25 NW6       29.84F
MERCED         SUNNY     89  45  21 W12G17    29.83F
LEMOORE        MOSUNNY   90  46  21 N7        29.83F
FRESNO         MOSUNNY   90  49  24 W8        29.84F
HANFORD        SUNNY     90  48  23 NW6       29.84F
PORTERVILLE    SUNNY     88  50  27 CALM      29.86F
BAKERSFIELD    SUNNY     90  48  23 NW7       29.84F
$$
CAZ011-012-071-022300-
NORTHERN MOUNTAINS

CITY           SKY/WX    TMP DP  RH WIND       PRES   REMARKS
YREKA          PTSUNNY   79  40  24 NW14      29.86F
MOUNT SHASTA   SUNNY     79  44  28 MISG      29.88F
ALTURAS        MOSUNNY   80  37  21 S23G31    29.89F
$$
CAZ011-012-071-022300-
SIERRA NEVADA MTNS

CITY           SKY/WX    TMP DP  RH WIND       PRES   REMARKS
BLUE CANYON    SUNNY     71  34  25 S18G25    30.08F
TAHOE VLY ARPT SUNNY     74  31  20 SW8G21    30.07F
MAMMOTH LAKES  FAIR      77  19  11 E9G18     30.11F
$$




USA.gov is the U.S. government's official web portal to all federal, state and local government web resources and services.